DW1521 Weather Reports


Display with metric or nautical units.
time (UTC)temp
F
wind
direction
speed
MPH
gust
MPH
rain 1hr
in
rain 24hr
in
rain mn
in
humidity
%
barometer
mb
20170428140114 78 154 6.0 10.0 0.00 0.00 0.00 29 1012.0
20170428135113 78 126 5.0 8.0 0.00 0.00 0.00 29 1012.0
20170428134113 79 122 5.0 8.0 0.00 0.00 0.00 29 1012.0
20170428131113 79 136 4.0 9.0 0.00 0.00 0.00 29 1013.0
20170428124113 79 122 5.0 9.0 0.00 0.00 0.00 29 1013.0
20170428122113 79 160 5.0 9.0 0.00 0.00 0.00 29 1013.0
20170428120114 80 124 5.0 9.0 0.00 0.00 0.00 29 1013.0
20170428114113 80 143 4.0 8.0 0.00 0.00 0.00 29 1013.0
20170428113112 79 127 5.0 9.0 0.00 0.00 0.00 28 1013.0
20170428112112 79 127 6.0 9.0 0.00 0.00 0.00 29 1013.0
20170428111113 79 126 4.0 8.0 0.00 0.00 0.00 29 1013.0
20170428110113 79 173 4.0 9.0 0.00 0.00 0.00 29 1013.0
20170428105113 78 126 5.0 8.0 0.00 0.00 0.00 29 1013.0
20170428104112 77 121 3.0 9.0 0.00 0.00 0.00 29 1013.0
20170428103113 78 153 3.0 7.0 0.00 0.00 0.00 29 1013.0
20170428102113 77 127 3.0 8.0 0.00 0.00 0.00 29 1013.0
20170428101114 78 152 5.0 9.0 0.00 0.00 0.00 29 1014.0
20170428095113 76 325 0.0 5.0 0.00 0.00 0.00 33 1014.0
20170428094113 75 240 0.0 7.0 0.00 0.00 0.00 33 1014.0
20170428093113 74 216 1.0 6.0 0.00 0.00 0.00 34 1014.0
20170428092113 74 301 1.0 6.0 0.00 0.00 0.00 34 1014.0
20170428091115 74 174 1.0 6.0 0.00 0.00 0.00 36 1014.0
20170428090113 73 211 3.0 6.0 0.00 0.00 0.00 38 1014.0
20170428085113 72 149 0.0 6.0 0.00 0.00 0.00 39 1014.0
20170428084113 71 252 1.0 3.0 0.00 0.00 0.00 39 1014.0
20170428082113 69 157 3.0 5.0 0.00 0.00 0.00 43 1014.0
20170428081113 68 174 0.0 5.0 0.00 0.00 0.00 44 1014.0
20170428080114 67 253 2.0 5.0 0.00 0.00 0.00 45 1014.0
20170428075112 64 311 0.0 2.0 0.00 0.00 0.00 46 1014.0
20170428074113 63 311 0.0 3.0 0.00 0.00 0.00 48 1014.0
20170428073114 61 311 0.0 3.0 0.00 0.00 0.00 51 1014.0
20170428071112 61 43 0.0 0.0 0.00 0.00 0.00 51 1014.0
20170428070113 60 42 0.0 0.0 0.00 0.00 0.00 53 1014.0
20170428064113 59 43 0.0 3.0 0.00 0.00 0.00 54 1014.0
20170428063113 57 43 0.0 2.0 0.00 0.00 0.00 59 1014.0
20170428062113 55 43 0.0 0.0 0.00 0.00 0.00 60 1014.0
20170428060113 52 43 0.0 2.0 0.00 0.00 0.00 67 1014.0
20170428055113 51 45 0.0 0.0 0.00 0.00 0.00 70 1014.0
20170428054112 49 45 0.0 0.0 0.00 0.00 0.00 75 1015.0
20170428053112 48 45 0.0 0.0 0.00 0.00 0.00 80 1015.0
20170428052112 47 45 0.0 0.0 0.00 0.00 0.00 73 1015.0
20170428051113 46 45 0.0 0.0 0.00 0.00 0.00 73 1014.0
20170428042113 43 45 2.0 2.0 0.00 0.00 0.00 70 1015.0
20170428041112 43 45 0.0 3.0 0.00 0.00 0.00 69 1014.0
20170428040113 43 45 0.0 0.0 0.00 0.00 0.00 69 1014.0
20170428034112 43 45 0.0 3.0 0.00 0.00 0.00 68 1014.0
20170428030113 44 45 0.0 0.0 0.00 0.00 0.00 67 1015.0
20170428025112 44 45 0.0 0.0 0.00 0.00 0.00 67 1015.0
20170428024112 44 45 0.0 0.0 0.00 0.00 0.00 67 1015.0
20170428021112 45 45 0.0 0.0 0.00 0.00 0.00 66 1015.0
20170428020113 45 45 0.0 3.0 0.00 0.00 0.00 66 1015.0
20170428015113 46 45 0.0 3.0 0.00 0.00 0.00 66 1015.0
20170428014114 46 45 0.0 0.0 0.00 0.00 0.00 65 1015.0
20170428012112 46 45 0.0 0.0 0.00 0.00 0.00 65 1015.0
20170428005113 46 45 0.0 0.0 0.00 0.00 0.00 63 1015.0
20170428004113 46 45 0.0 3.0 0.00 0.00 0.00 62 1015.0
20170428003112 47 45 1.0 3.0 0.00 0.00 0.00 62 1015.0
20170428002113 47 45 0.0 0.0 0.00 0.00 0.00 62 1015.0
20170428001112 47 45 0.0 0.0 0.00 0.00 0.00 61 1015.0
20170427235113 48 45 0.0 0.0 0.00 0.00 0.00 61 1015.0
20170427233113 49 46 0.0 0.0 0.00 0.00 0.00 61 1015.0
20170427232112 49 46 0.0 0.0 0.00 0.00 0.00 60 1015.0
20170427224112 50 319 0.0 0.0 0.00 0.00 0.00 59 1015.0
20170427223113 50 319 0.0 0.0 0.00 0.00 0.00 58 1015.0
20170427222113 50 319 0.0 2.0 0.00 0.00 0.00 58 1015.0
20170427221113 50 319 0.0 0.0 0.00 0.00 0.00 57 1015.0
20170427215112 51 319 0.0 3.0 0.00 0.00 0.00 55 1016.0
20170427214112 51 149 0.0 0.0 0.00 0.00 0.00 55 1016.0
20170427212113 52 149 0.0 0.0 0.00 0.00 0.00 53 1016.0
20170427205112 53 149 0.0 0.0 0.00 0.00 0.00 52 1016.0
20170427204112 54 149 0.0 0.0 0.00 0.00 0.00 51 1016.0
20170427202112 55 149 0.0 0.0 0.00 0.00 0.00 50 1016.0
20170427201113 55 149 0.0 2.0 0.00 0.00 0.00 50 1016.0
20170427200113 56 149 0.0 2.0 0.00 0.00 0.00 49 1016.0
20170427194113 56 149 0.0 0.0 0.00 0.00 0.00 48 1016.0
20170427193113 57 149 0.0 0.0 0.00 0.00 0.00 46 1016.0
20170427192112 58 149 0.0 0.0 0.00 0.00 0.00 46 1016.0
20170427191113 58 149 0.0 0.0 0.00 0.00 0.00 44 1016.0
20170427190113 59 149 0.0 0.0 0.00 0.00 0.00 43 1015.7
20170427185112 59 149 0.0 0.0 0.00 0.00 0.00 40 1015.0
20170427181113 62 149 0.0 0.0 0.00 0.00 0.00 37 1015.0
20170427175112 63 149 0.0 2.0 0.00 0.00 0.00 36 1015.0
20170427174112 64 149 0.0 3.0 0.00 0.00 0.00 34 1015.0
20170427173113 65 151 0.0 3.0 0.00 0.00 0.00 34 1015.0
20170427172113 65 151 0.0 3.0 0.00 0.00 0.00 33 1015.0
20170427171112 66 118 3.0 6.0 0.00 0.00 0.00 33 1014.0
20170427170113 66 118 5.0 6.0 0.00 0.00 0.00 33 1014.0
20170427164113 67 122 5.0 8.0 0.00 0.00 0.00 32 1014.0
20170427163114 68 132 4.0 8.0 0.00 0.00 0.00 32 1014.0
20170427162114 68 158 2.0 6.0 0.00 0.00 0.00 32 1014.0
20170427160113 70 155 4.0 6.0 0.00 0.00 0.00 31 1014.0
20170427155114 70 147 3.0 6.0 0.00 0.00 0.00 31 1014.0
20170427152112 71 150 6.0 10.0 0.00 0.00 0.00 31 1014.0
20170427151113 72 163 4.0 10.0 0.00 0.00 0.00 31 1014.0
20170427150113 73 150 4.0 9.0 0.00 0.00 0.00 31 1014.0
20170427145112 74 135 5.0 8.0 0.00 0.00 0.00 29 1014.0
20170427144113 74 133 4.0 8.0 0.00 0.00 0.00 29 1014.0
20170427143114 74 158 5.0 9.0 0.00 0.00 0.00 29 1014.0
20170427142113 75 132 4.0 9.0 0.00 0.00 0.00 29 1015.0
20170427141114 75 145 4.0 7.0 0.00 0.00 0.00 29 1014.0